Погода в Гостовском

Россия / Кировская область     58°19′52″N   46°41′03″E
темп.,
°C
ветер,
м/с
пор.,
м/с
влажн.,
%
обл.,
%
осадки,
мм/ч
давл.,
гПа
погр.,
м
7 марта, вс
вс700:00−18зюз129949 0.0 101020
03:00−19юз1210061 0.0 100920
06:00−19ююз2210070 0.0 100828
09:00−15ю359582 0.1 1006218
12:00−10ююв4890100 0.0 1004554
15:00−8ююв51089100 0.1 1000713
18:00−9ююв51194100 0.9 997816
21:00−9юв51194100 1.8 995689
8 марта, пн
пн800:00−8юв4994100 0.7 992503
03:00−9вюв3795100 1.2 991317
06:00−9всв3696100 0.7 990235
09:00−8св2494100 1.5 992324
12:00−7с2493100 0.9 994431
15:00−7с3592100 1.5 996530
18:00−10с3794100 0.5 999436
21:00−13с389599 0.6 1002328
9 марта, вт
вт900:00−16ссз379682 0.0 1004178
03:00−19ссз379773 0.1 1007186
06:00−22ссз269754 0.0 1010136
09:00−20с369327 0.0 1012267
12:00−16с348962 0.0 1013421
15:00−15с368881 0.0 1014523
18:00−19с3895100 0.0 1016215
21:00−22с399694 0.0 1018291
10 марта, ср
ср1000:00−26с379620 0.0 1019186
03:00−28с379710 0.0 1021160
06:00−30с37960 0.0 1022159
09:00−25с36930 0.0 1023268
12:00−19ссз35862 0.0 1023493
15:00−16ссз36811 0.0 1023741
18:00−20сз239448 0.0 102335
21:00−22зсз379732 0.0 1024142
11 марта, чт
чт1100:00−22зсз389932 0.0 1024141
03:00−21зсз389762 0.0 1024228
06:00−22зсз3109737 0.0 1024213
09:00−16сз489250 0.0 1025290
12:00−10сз478758 0.0 1025457
15:00−7сз368378 0.0 1025624
18:00−11з239424 0.0 102642
21:00−15з239720 0.0 102776